DateTime,Index
2000080812,0.0
2000080818,0.0
2000080900,0.0
2000080906,0.0
2000080912,0.0
2000080918,0.0
2000081000,1225.0
2000081006,1225.0
2000081012,1225.0
2000081018,2025.0
2000081100,2500.0
2000081106,4225.0
2000081112,4225.0
2000081118,3600.0
2000081200,3025.0
2000081206,2025.0
2000081212,2025.0
2000081218,2025.0
2000081300,2500.0
2000081306,2025.0
2000081312,2025.0
2000081318,2025.0
2000081400,2025.0
2000081406,2025.0
2000081412,2025.0
2000081418,4225.0
2000081500,5625.0
2000081506,5625.0
2000081512,5625.0
2000081518,5625.0
2000081600,4900.0
2000081606,4225.0
2000081612,3025.0
2000081618,1600.0
2000081700,1600.0
2000081706,1600.0
2000081712,1225.0
2000081718,1225.0
2000081800,1225.0
2000081806,1225.0
2000081812,0.0
2000081818,0.0
2000081900,0.0
2000081906,0.0
2000081912,0.0
2000081918,0.0
